STARLINK-5961, 56914

Orbit data source: Space-Track

STARLINK-5961, 56914 is a payload satellite owned by SpaceX/Seattle (US) in LEO that was launched on Mon, 12 Jun 2023 UTC via an FALCON 9 launch vehicle from the Air Force Eastern Test Range (AFETR). Payload-class satellites include a variety of spacecraft equipped with specific instruments for various scientific and technological missions. These include communications satellites like Starlink; space stations such as the ISS; scientific satellites like the Hubble; Earth observation satellites from companies like Planet Labs, Umbra, and HawkEye 360; GPS; miniature CubeSats for education and research; and military/defense satellites.

Loading next visibility...
Identifier
56914, 2023-083AQ
Orbit
LEO
Country
Flag of USUS
Related business
Manufacturer
SpaceX/Seattle
Mission
Operational Commercial Communications
Bus & Motor
STARLINK, Unknown motor
Mass
305 kg wet, ~290 kg dry
Launch date (UTC)
2023-06-12 (3 years ago)
Launch vehicle
FALCON 9
Launch site
Air Force Eastern Test Range (AFETR)
Object type
Payload
Rocket body
Debris
Shape & HBR
Box + 1 Pan, 10.1 m
Radar Cross Section
11.087 m², Large (>1 m²)

Expand to show TLE details & history
Last TLE update: 2 days ago

TLE from 2 days ago
0 STARLINK-5961
1 56914U 23083AQ  26171.41767770 -.00000028  00000-0  85299-5 0  9996
2 56914  43.0033 210.1324 0001488 288.1179  71.9511 15.27574191167516
Epoch: 2026-06-20T10:01Z
TLE epoch observation values (Epoch: 2026-06-20T10:01:27.353Z)
Latitude
0.00002°
Longitude
151.13586°
Altitude
482.526 km
Speed
7.626 km/s
True Right ascension
14h 00m 31s
True Declination
0° 00' 00"
Sunlit
Object was in full shadow at epoch
Visualization orbit readout
Latitude
Unknown
Longitude
Unknown
Altitude
Unknown
Speed
Unknown
Apparent Right ascension
Unknown
Apparent Declination
Unknown
Sunlit
N/A
Visualization observer readout
Local Sidereal Time
21:32:48
Azimuth
Unknown
Elevation
Unknown
Doppler factor
Unknown
Orbital elements
Apogee altitude
486.032 km
Perigee altitude
483.99 km
Semi-major axis
6,863.148 km
Eccentricity
0.00015
Inclination
43.0033°
RAAN
210.1324°
Arg. of periapsis
288.1179°
True anomaly
71.96731°
Mean anomaly
71.9511°
Eccentric anomaly
71.95921°
Mean motion
3.81732 °/min
Orbital period
94.31 mins
BSTAR
0.0000085299
Loading maneuver chart data...
Computing Atmospheric mass density...
Loading historical data...
Loading historical data...
Loading historical data...
Loading historical data...
Loading historical data...
Loading historical data...
Loading historical data...

Documentation

Showing up to 5 results
|